Weather History for KVPZ - May, 2013

Change the Weather History Date:

Thursday, May 16, 2013

  Actual Average Record
Temperature  
Mean Temperature 69 °F 59 °F  
Max Temperature 85 °F 70 °F 87 °F (2001)
Min Temperature 53 °F 48 °F 35 °F (2014)
Degree Days  
Heating Degree Days 0 7  
Month to date heating degree days 100 142  
Since 1 July heating degree days 5993 6201  
Cooling Degree Days 4 1  
Month to date cooling degree days 21 12  
Year to date cooling degree days 27 17  
Growing Degree Days 18 (Base 50)    
Moisture  
Dew Point 45 °F    
Average Humidity 47    
Maximum Humidity 83    
Minimum Humidity 21    
Precipitation  
Precipitation 0.00 in 0.12 in 0.54 in (2001)
Month to date precipitation 0.54 2.01  
Year to date precipitation 10.81 11.19  
Sea Level Pressure  
Sea Level Pressure 29.91 in    
Wind  
Wind Speed 4 mph (NNE)    
Max Wind Speed 13 mph    
Max Gust Speed 20 mph    
Visibility 10 miles    
Events      
T = Trace of Precipitation, MM = Missing Value Source: NWS Daily Summary

Daily Weather History Graph

Daily Weather History Graph

Search for Another Location

Airport or City:

Trip Planner

Search our weather history database for the weather conditions in past years. The results will help you decide how hot, cold, wet, or windy it might be!

Date:

Astronomy

May. 16, 2013 Rise Set
Actual Time 5:27 AM CDT 8:01 PM CDT
Civil Twilight 4:56 AM CDT 8:33 PM CDT
Nautical Twilight 4:16 AM CDT 9:13 PM CDT
Astronomical Twilight 3:32 AM CDT 9:57 PM CDT
Moon 11:01 AM CDT (5/16) 12:21 AM CDT (5/16)
Length of Visible Light 15h 37m
Length of Day
14h 33m
Waxing Crescent, 36% of the Moon is Illuminated
May 16
Waxing Crescent
May 17
First Quarter
May 24
Full
May 31
Last Quarter
Jun 8
New

Hourly Weather History & Observations

Time (CDT) Temp. Dew Point Humidity Pressure Visibility Wind Dir Wind Speed Gust Speed Precip Events Conditions
12:53 AM 57.9 °F 50.0 °F 75% 29.83 in 10.0 mi Calm Calm - N/A   Clear
1:53 AM 59.0 °F 51.1 °F 75% 29.86 in 10.0 mi Calm Calm - N/A   Clear
2:53 AM 55.0 °F 50.0 °F 83% 29.87 in 10.0 mi North 5.8 mph - N/A   Clear
3:53 AM 57.0 °F 48.9 °F 74% 29.86 in 10.0 mi Calm Calm - N/A   Clear
4:53 AM 53.1 °F 48.0 °F 83% 29.87 in 10.0 mi Calm Calm - N/A   Clear
5:53 AM 55.0 °F 48.0 °F 77% 29.88 in 10.0 mi Calm Calm - N/A   Clear
6:53 AM 64.9 °F 46.0 °F 50% 29.90 in 10.0 mi Calm Calm - N/A   Clear
7:53 AM 68.0 °F 44.1 °F 42% 29.92 in 10.0 mi North 4.6 mph - N/A   Clear
8:53 AM 73.9 °F 41.0 °F 30% 29.93 in 10.0 mi NE 5.8 mph - N/A   Clear
9:53 AM 77.0 °F 41.0 °F 28% 29.95 in 10.0 mi NNE 6.9 mph - N/A   Clear
10:53 AM 78.1 °F 43.0 °F 29% 29.94 in 10.0 mi NNE 6.9 mph 16.1 mph N/A   Partly Cloudy
11:53 AM 79.0 °F 43.0 °F 28% 29.93 in 10.0 mi NNE 8.1 mph - N/A   Partly Cloudy
12:53 PM 80.1 °F 42.1 °F 26% 29.93 in 10.0 mi Variable 4.6 mph - N/A   Clear
1:53 PM 82.9 °F 39.0 °F 21% 29.92 in 10.0 mi ENE 6.9 mph - N/A   Clear
2:53 PM 82.9 °F 39.0 °F 21% 29.91 in 10.0 mi SSW 4.6 mph - N/A   Clear
3:53 PM 84.0 °F 43.0 °F 24% 29.89 in 10.0 mi Calm Calm - N/A   Clear
5:53 PM 79.0 °F 41.0 °F 26% 29.90 in 10.0 mi NNE 9.2 mph - N/A   Clear
6:53 PM 75.9 °F 43.0 °F 31% 29.91 in 10.0 mi NNE 4.6 mph - N/A   Clear
7:53 PM 70.0 °F 46.0 °F 42% 29.93 in 10.0 mi Calm Calm - N/A   Clear
8:53 PM 64.9 °F 45.0 °F 48% 29.94 in 10.0 mi NNE 3.5 mph - N/A   Clear
9:53 PM 62.1 °F 45.0 °F 53% 29.96 in 10.0 mi NNE 3.5 mph - N/A   Clear
10:53 PM 61.0 °F 45.0 °F 56% 29.97 in 10.0 mi NE 3.5 mph - N/A   Clear
11:53 PM 59.0 °F 45.0 °F 60% 29.97 in 10.0 mi NE 4.6 mph - N/A   Partly Cloudy